| time (UTC) | temp F | wind direction | speed MPH | gust MPH | rain 1hr in | rain 24hr in | rain mn in | humidity % | barometer mb |
| 20260904083603 | 59 | 0 | 0.0 | 2.0 | 0.00 | 0.10 | 0.00 | 95 | 1011.5 |
| 20260904083105 | 59 | 0 | 0.0 | 2.0 | 0.00 | 0.10 | 0.00 | 95 | 1011.6 |
| 20260904082601 | 59 | 0 | 0.0 | 2.0 | 0.00 | 0.10 | 0.00 | 95 | 1011.6 |
| 20260904082059 | 59 | 0 | 0.0 | 0.0 | 0.00 | 0.10 | 0.00 | 95 | 1011.7 |
| 20260904081604 | 59 | 0 | 0.0 | 2.0 | 0.00 | 0.10 | 0.00 | 95 | 1011.7 |
| 20260904081102 | 60 | 0 | 0.0 | 2.0 | 0.00 | 0.10 | 0.00 | 95 | 1011.7 |
| 20260904080601 | 60 | 355 | 1.0 | 2.0 | 0.00 | 0.10 | 0.00 | 95 | 1011.6 |
| 20260904080104 | 60 | 0 | 0.0 | 1.0 | 0.00 | 0.10 | 0.00 | 95 | 1011.6 |
| 20260904075600 | 60 | 0 | 0.0 | 1.0 | 0.00 | 0.10 | 0.00 | 95 | 1011.4 |
| 20260904075058 | 60 | 0 | 0.0 | 1.0 | 0.00 | 0.10 | 0.00 | 95 | 1011.5 |
| 20260904074600 | 60 | 0 | 0.0 | 2.0 | 0.00 | 0.10 | 0.00 | 95 | 1011.5 |
| 20260904074102 | 60 | 0 | 0.0 | 2.0 | 0.00 | 0.10 | 0.00 | 95 | 1011.4 |
| 20260904073601 | 60 | 0 | 0.0 | 3.0 | 0.00 | 0.10 | 0.00 | 95 | 1011.5 |
| 20260904073102 | 60 | 0 | 0.0 | 3.0 | 0.00 | 0.10 | 0.00 | 95 | 1011.5 |
| 20260904072601 | 60 | 182 | 0.0 | 3.0 | 0.00 | 0.10 | 0.00 | 95 | 1011.6 |
| 20260904072100 | 60 | 0 | 0.0 | 1.0 | 0.00 | 0.10 | 0.00 | 95 | 1011.6 |
| 20260904071605 | 60 | 0 | 0.0 | 0.0 | 0.00 | 0.10 | 0.00 | 95 | 1011.7 |
| 20260904071059 | 60 | 0 | 0.0 | 1.0 | 0.00 | 0.10 | 0.00 | 95 | 1011.7 |
| 20260904070600 | 60 | 0 | 0.0 | 1.0 | 0.00 | 0.10 | 0.00 | 95 | 1011.6 |
| 20260904065559 | 60 | 0 | 0.0 | 0.0 | 0.00 | 0.10 | 0.00 | 95 | 1011.7 |
| 20260904065103 | 60 | 0 | 0.0 | 0.0 | 0.00 | 0.10 | 0.00 | 95 | 1011.7 |
| 20260904064602 | 60 | 0 | 0.0 | 0.0 | 0.00 | 0.10 | 0.00 | 95 | 1011.6 |
| 20260904064100 | 60 | 0 | 0.0 | 0.0 | 0.00 | 0.10 | 0.00 | 95 | 1011.6 |
| 20260904063601 | 60 | 0 | 0.0 | 0.0 | 0.00 | 0.10 | 0.00 | 95 | 1011.6 |
| 20260904063103 | 60 | 0 | 0.0 | 1.0 | 0.00 | 0.10 | 0.00 | 95 | 1011.6 |
| 20260904062558 | 60 | 0 | 0.0 | 1.0 | 0.00 | 0.10 | 0.00 | 95 | 1011.7 |
| 20260904062059 | 60 | 0 | 0.0 | 0.0 | 0.00 | 0.10 | 0.00 | 95 | 1011.7 |
| 20260904061601 | 60 | 0 | 0.0 | 0.0 | 0.00 | 0.10 | 0.00 | 95 | 1011.8 |
| 20260904061100 | 60 | 0 | 0.0 | 0.0 | 0.00 | 0.10 | 0.00 | 95 | 1011.8 |
| 20260904060600 | 60 | 0 | 0.0 | 0.0 | 0.00 | 0.10 | 0.00 | 95 | 1011.9 |
| 20260904060106 | 60 | 0 | 0.0 | 0.0 | 0.00 | 0.10 | 0.00 | 95 | 1012.0 |
| 20260904055600 | 60 | 0 | 0.0 | 0.0 | 0.00 | 0.10 | 0.00 | 95 | 1012.1 |
| 20260904055059 | 60 | 0 | 0.0 | 1.0 | 0.00 | 0.10 | 0.00 | 95 | 1012.2 |
| 20260904054602 | 61 | 0 | 0.0 | 1.0 | 0.00 | 0.10 | 0.00 | 95 | 1012.1 |
| 20260904054103 | 61 | 0 | 0.0 | 1.0 | 0.00 | 0.10 | 0.00 | 95 | 1012.2 |
| 20260904053557 | 61 | 0 | 0.0 | 0.0 | 0.00 | 0.10 | 0.00 | 95 | 1012.3 |
| 20260904053106 | 61 | 0 | 0.0 | 0.0 | 0.00 | 0.10 | 0.00 | 95 | 1012.3 |
| 20260904052600 | 61 | 0 | 0.0 | 0.0 | 0.00 | 0.10 | 0.00 | 95 | 1012.4 |
| 20260904052059 | 61 | 0 | 0.0 | 0.0 | 0.00 | 0.10 | 0.00 | 95 | 1012.6 |
| 20260904051604 | 61 | 0 | 0.0 | 0.0 | 0.00 | 0.10 | 0.00 | 95 | 1012.7 |
| 20260904051100 | 61 | 0 | 0.0 | 0.0 | 0.00 | 0.10 | 0.00 | 94 | 1012.7 |
| 20260904050558 | 61 | 0 | 0.0 | 0.0 | 0.00 | 0.10 | 0.00 | 95 | 1012.7 |
| 20260904050107 | 61 | 0 | 0.0 | 0.0 | 0.00 | 0.10 | 0.00 | 95 | 1012.7 |
| 20260904045558 | 61 | 0 | 0.0 | 0.0 | 0.00 | 0.10 | 0.00 | 95 | 1012.7 |
| 20260904045059 | 61 | 0 | 0.0 | 0.0 | 0.00 | 0.10 | 0.00 | 95 | 1012.8 |
| 20260904044611 | 61 | 0 | 0.0 | 0.0 | 0.00 | 0.10 | 0.00 | 95 | 1012.8 |
| 20260904044059 | 62 | 0 | 0.0 | 0.0 | 0.00 | 0.10 | 0.00 | 95 | 1012.8 |
| 20260904043558 | 62 | 0 | 0.0 | 0.0 | 0.00 | 0.10 | 0.00 | 94 | 1012.8 |
| 20260904043102 | 62 | 0 | 0.0 | 0.0 | 0.00 | 0.10 | 0.00 | 94 | 1012.7 |
| 20260904042557 | 62 | 0 | 0.0 | 0.0 | 0.00 | 0.10 | 0.00 | 94 | 1012.7 |
| 20260904042058 | 62 | 0 | 0.0 | 0.0 | 0.00 | 0.10 | 0.00 | 94 | 1012.6 |
| 20260904041603 | 62 | 0 | 0.0 | 1.0 | 0.00 | 0.10 | 0.00 | 95 | 1012.7 |
| 20260904041100 | 62 | 0 | 0.0 | 1.0 | 0.00 | 0.10 | 0.00 | 94 | 1012.6 |
| 20260904040600 | 62 | 0 | 0.0 | 0.0 | 0.00 | 0.10 | 0.00 | 95 | 1012.8 |
| 20260904040110 | 62 | 0 | 0.0 | 0.0 | 0.00 | 0.10 | 0.00 | 95 | 1012.8 |
| 20260904035557 | 62 | 0 | 0.0 | 1.0 | 0.00 | 0.10 | 0.10 | 95 | 1012.8 |
| 20260904035059 | 62 | 0 | 0.0 | 1.0 | 0.00 | 0.10 | 0.10 | 94 | 1012.8 |
| 20260904034604 | 62 | 0 | 0.0 | 1.0 | 0.00 | 0.10 | 0.10 | 94 | 1012.8 |
| 20260904034057 | 62 | 0 | 0.0 | 1.0 | 0.00 | 0.10 | 0.10 | 94 | 1012.8 |
| 20260904033557 | 62 | 0 | 0.0 | 2.0 | 0.00 | 0.10 | 0.10 | 94 | 1012.8 |
| 20260904033111 | 62 | 0 | 0.0 | 2.0 | 0.00 | 0.10 | 0.10 | 94 | 1013.0 |
| 20260904032600 | 62 | 0 | 0.0 | 1.0 | 0.00 | 0.10 | 0.10 | 94 | 1013.0 |
| 20260904032057 | 62 | 0 | 0.0 | 0.0 | 0.00 | 0.10 | 0.10 | 94 | 1013.2 |
| 20260904031609 | 62 | 0 | 0.0 | 0.0 | 0.00 | 0.10 | 0.10 | 94 | 1013.0 |
| 20260904031101 | 62 | 0 | 0.0 | 0.0 | 0.00 | 0.10 | 0.10 | 94 | 1012.9 |
| 20260904030600 | 62 | 0 | 0.0 | 1.0 | 0.00 | 0.10 | 0.10 | 94 | 1013.1 |
| 20260904025600 | 62 | 0 | 0.0 | 0.0 | 0.00 | 0.10 | 0.10 | 94 | 1013.2 |
| 20260904025059 | 62 | 0 | 0.0 | 1.0 | 0.00 | 0.10 | 0.10 | 94 | 1013.3 |
| 20260904024616 | 63 | 0 | 0.0 | 1.0 | 0.00 | 0.10 | 0.10 | 94 | 1013.3 |
| 20260904024102 | 63 | 0 | 0.0 | 0.0 | 0.00 | 0.10 | 0.10 | 94 | 1013.3 |
| 20260904023600 | 63 | 0 | 0.0 | 0.0 | 0.00 | 0.10 | 0.10 | 94 | 1013.2 |
| 20260904023104 | 63 | 0 | 0.0 | 1.0 | 0.00 | 0.10 | 0.10 | 94 | 1013.2 |
| 20260904022559 | 63 | 0 | 0.0 | 2.0 | 0.00 | 0.10 | 0.10 | 94 | 1013.2 |
| 20260904022100 | 63 | 298 | 0.0 | 2.0 | 0.00 | 0.10 | 0.10 | 94 | 1013.3 |
| 20260904021602 | 63 | 297 | 0.0 | 2.0 | 0.00 | 0.10 | 0.10 | 94 | 1013.4 |
| 20260904021100 | 63 | 310 | 0.0 | 2.0 | 0.00 | 0.10 | 0.10 | 94 | 1013.3 |
| 20260904020600 | 63 | 0 | 0.0 | 2.0 | 0.00 | 0.10 | 0.10 | 94 | 1013.2 |
| 20260904015559 | 63 | 0 | 0.0 | 2.0 | 0.00 | 0.10 | 0.10 | 94 | 1013.2 |
| 20260904015100 | 63 | 0 | 0.0 | 2.0 | 0.00 | 0.10 | 0.10 | 94 | 1013.1 |
| 20260904014602 | 64 | 0 | 0.0 | 1.0 | 0.00 | 0.10 | 0.10 | 94 | 1013.3 |
| 20260904014104 | 64 | 0 | 0.0 | 2.0 | 0.00 | 0.10 | 0.10 | 94 | 1013.2 |
| 20260904013602 | 64 | 208 | 0.0 | 2.0 | 0.00 | 0.10 | 0.10 | 94 | 1013.2 |
| 20260904013111 | 64 | 0 | 0.0 | 3.0 | 0.00 | 0.10 | 0.10 | 94 | 1013.2 |
| 20260904012559 | 64 | 303 | 0.0 | 3.0 | 0.00 | 0.10 | 0.10 | 94 | 1013.3 |
| 20260904012101 | 64 | 0 | 1.0 | 3.0 | 0.00 | 0.10 | 0.10 | 94 | 1013.2 |
| 20260904011614 | 64 | 0 | 0.0 | 1.0 | 0.00 | 0.10 | 0.10 | 94 | 1013.2 |
| 20260904011103 | 65 | 0 | 0.0 | 1.0 | 0.00 | 0.10 | 0.10 | 94 | 1013.2 |
| 20260904010559 | 65 | 0 | 0.0 | 1.0 | 0.00 | 0.10 | 0.10 | 94 | 1013.1 |
| 20260904010111 | 65 | 275 | 0.0 | 1.0 | 0.00 | 0.10 | 0.10 | 93 | 1013.1 |
| 20260904005559 | 65 | 0 | 0.0 | 1.0 | 0.00 | 0.10 | 0.10 | 94 | 1013.2 |
| 20260904005100 | 65 | 0 | 0.0 | 1.0 | 0.00 | 0.10 | 0.10 | 94 | 1013.1 |
| 20260904004604 | 65 | 0 | 0.0 | 1.0 | 0.00 | 0.10 | 0.10 | 93 | 1013.1 |
| 20260904004100 | 65 | 0 | 0.0 | 2.0 | 0.00 | 0.10 | 0.10 | 93 | 1013.0 |
| 20260904003559 | 65 | 0 | 0.0 | 2.0 | 0.00 | 0.10 | 0.10 | 93 | 1013.0 |
| 20260904003102 | 66 | 275 | 0.0 | 2.0 | 0.00 | 0.10 | 0.10 | 93 | 1013.0 |
| 20260904002559 | 66 | 0 | 0.0 | 1.0 | 0.00 | 0.10 | 0.10 | 93 | 1012.9 |
| 20260904002059 | 66 | 0 | 0.0 | 1.0 | 0.00 | 0.10 | 0.10 | 93 | 1012.9 |
| 20260904001601 | 66 | 297 | 0.0 | 2.0 | 0.00 | 0.10 | 0.10 | 93 | 1012.8 |
| 20260904001059 | 67 | 271 | 0.0 | 2.0 | 0.00 | 0.10 | 0.10 | 93 | 1012.6 |
| 20260904000604 | 67 | 264 | 0.0 | 2.0 | 0.00 | 0.10 | 0.10 | 93 | 1012.5 |
| 20260904000105 | 67 | 296 | 0.0 | 2.0 | 0.00 | 0.10 | 0.10 | 93 | 1012.5 |
| 20260903235602 | 67 | 342 | 0.0 | 1.0 | 0.00 | 0.10 | 0.10 | 93 | 1012.6 |
| 20260903235100 | 67 | 323 | 0.0 | 1.0 | 0.00 | 0.10 | 0.10 | 93 | 1012.4 |
| 20260903234603 | 68 | 0 | 0.0 | 1.0 | 0.00 | 0.10 | 0.10 | 93 | 1012.2 |
| 20260903234100 | 68 | 0 | 0.0 | 2.0 | 0.00 | 0.10 | 0.10 | 93 | 1012.1 |
| 20260903233602 | 68 | 186 | 0.0 | 2.0 | 0.00 | 0.10 | 0.10 | 93 | 1011.9 |
| 20260903233102 | 68 | 0 | 0.0 | 2.0 | 0.00 | 0.10 | 0.10 | 93 | 1011.9 |
| 20260903232559 | 68 | 0 | 0.0 | 2.0 | 0.00 | 0.10 | 0.10 | 93 | 1012.0 |
| 20260903232059 | 68 | 0 | 0.0 | 2.0 | 0.00 | 0.10 | 0.10 | 92 | 1012.0 |
| 20260903231603 | 69 | 0 | 0.0 | 2.0 | 0.00 | 0.10 | 0.10 | 92 | 1012.1 |
| 20260903231059 | 69 | 0 | 0.0 | 2.0 | 0.01 | 0.10 | 0.10 | 92 | 1012.2 |
| 20260903230559 | 69 | 319 | 0.0 | 2.0 | 0.04 | 0.10 | 0.10 | 92 | 1012.1 |
| 20260903230103 | 69 | 302 | 0.0 | 2.0 | 0.08 | 0.10 | 0.10 | 92 | 1012.2 |
| 20260903225601 | 69 | 289 | 0.0 | 2.0 | 0.09 | 0.10 | 0.10 | 92 | 1012.2 |
| 20260903225103 | 70 | 302 | 0.0 | 1.0 | 0.09 | 0.10 | 0.10 | 92 | 1012.2 |
| 20260903224602 | 70 | 0 | 0.0 | 1.0 | 0.09 | 0.10 | 0.10 | 92 | 1012.3 |
| 20260903224100 | 70 | 0 | 0.0 | 2.0 | 0.09 | 0.10 | 0.10 | 92 | 1012.3 |
| 20260903223601 | 71 | 252 | 0.0 | 2.0 | 0.09 | 0.10 | 0.10 | 91 | 1012.3 |
| 20260903223108 | 71 | 306 | 0.0 | 3.0 | 0.09 | 0.10 | 0.10 | 91 | 1012.4 |
| 20260903222603 | 71 | 0 | 0.0 | 3.0 | 0.09 | 0.10 | 0.10 | 91 | 1012.3 |
| 20260903222059 | 71 | 302 | 0.0 | 3.0 | 0.09 | 0.10 | 0.10 | 91 | 1012.2 |
| 20260903221607 | 72 | 282 | 1.0 | 2.0 | 0.09 | 0.10 | 0.10 | 90 | 1012.1 |
| 20260903221100 | 73 | 291 | 0.0 | 5.0 | 0.08 | 0.09 | 0.09 | 90 | 1012.0 |
| 20260903220603 | 73 | 191 | 2.0 | 5.0 | 0.05 | 0.06 | 0.06 | 90 | 1012.1 |
| 20260903220123 | 73 | 0 | 1.0 | 3.0 | 0.01 | 0.02 | 0.02 | 90 | 1012.1 |
| 20260903215600 | 73 | 286 | 1.0 | 3.0 | 0.00 | 0.01 | 0.01 | 89 | 1012.1 |
| 20260903215059 | 74 | 316 | 2.0 | 3.0 | 0.00 | 0.01 | 0.01 | 89 | 1012.2 |
| 20260903214604 | 74 | 342 | 1.0 | 3.0 | 0.00 | 0.01 | 0.01 | 89 | 1012.0 |
| 20260903214102 | 74 | 307 | 1.0 | 3.0 | 0.00 | 0.01 | 0.01 | 89 | 1012.2 |
| 20260903213559 | 74 | 306 | 1.0 | 3.0 | 0.00 | 0.01 | 0.01 | 89 | 1012.1 |
| 20260903213105 | 74 | 203 | 0.0 | 3.0 | 0.00 | 0.01 | 0.01 | 89 | 1012.1 |
| 20260903212600 | 74 | 274 | 0.0 | 3.0 | 0.00 | 0.01 | 0.01 | 89 | 1012.2 |
| 20260903212059 | 74 | 280 | 0.0 | 3.0 | 0.00 | 0.01 | 0.01 | 88 | 1012.5 |
| 20260903211604 | 74 | 285 | 1.0 | 3.0 | 0.00 | 0.01 | 0.01 | 88 | 1012.5 |
| 20260903211059 | 74 | 297 | 1.0 | 3.0 | 0.00 | 0.01 | 0.01 | 87 | 1012.4 |
| 20260903210600 | 74 | 276 | 0.0 | 3.0 | 0.00 | 0.01 | 0.01 | 87 | 1012.2 |
| 20260903210110 | 75 | 0 | 1.0 | 3.0 | 0.00 | 0.01 | 0.01 | 87 | 1012.2 |
| 20260903205600 | 75 | 316 | 1.0 | 3.0 | 0.00 | 0.01 | 0.01 | 86 | 1012.1 |
| 20260903205102 | 75 | 297 | 0.0 | 3.0 | 0.00 | 0.01 | 0.01 | 86 | 1012.2 |
| 20260903204603 | 75 | 0 | 1.0 | 3.0 | 0.00 | 0.01 | 0.01 | 85 | 1012.1 |
| 20260903204101 | 76 | 0 | 0.0 | 5.0 | 0.00 | 0.01 | 0.01 | 85 | 1012.1 |
| 20260903203600 | 76 | 283 | 1.0 | 5.0 | 0.00 | 0.01 | 0.01 | 84 | 1012.0 |
| 20260903203132 | 76 | 167 | 2.0 | 5.0 | 0.00 | 0.01 | 0.01 | 84 | 1012.1 |
| 20260903202600 | 76 | 155 | 0.0 | 4.0 | 0.00 | 0.01 | 0.01 | 84 | 1012.0 |
| 20260903202103 | 76 | 181 | 0.0 | 6.0 | 0.00 | 0.01 | 0.01 | 84 | 1012.0 |
| 20260903201603 | 76 | 272 | 0.0 | 6.0 | 0.00 | 0.01 | 0.01 | 84 | 1012.0 |
| 20260903201102 | 76 | 168 | 3.0 | 6.0 | 0.00 | 0.01 | 0.01 | 84 | 1012.0 |
| 20260903200601 | 76 | 191 | 1.0 | 6.0 | 0.00 | 0.01 | 0.01 | 82 | 1012.1 |
| 20260903200105 | 77 | 0 | 1.0 | 5.0 | 0.00 | 0.01 | 0.01 | 81 | 1012.1 |
| 20260903195603 | 77 | 172 | 1.0 | 5.0 | 0.00 | 0.01 | 0.01 | 82 | 1012.3 |
| 20260903195101 | 77 | 0 | 1.0 | 3.0 | 0.00 | 0.01 | 0.01 | 81 | 1012.3 |
| 20260903194605 | 77 | 0 | 0.0 | 4.0 | 0.00 | 0.01 | 0.01 | 83 | 1012.4 |
| 20260903194103 | 76 | 167 | 1.0 | 4.0 | 0.00 | 0.01 | 0.01 | 85 | 1012.3 |
| 20260903193601 | 76 | 0 | 0.0 | 4.0 | 0.00 | 0.01 | 0.01 | 85 | 1012.5 |
| 20260903193108 | 76 | 291 | 0.0 | 4.0 | 0.00 | 0.01 | 0.01 | 84 | 1012.4 |
| 20260903192600 | 77 | 154 | 1.0 | 6.0 | 0.00 | 0.01 | 0.01 | 83 | 1012.5 |
| 20260903192101 | 76 | 146 | 0.0 | 6.0 | 0.00 | 0.01 | 0.01 | 84 | 1012.5 |
| 20260903191604 | 76 | 181 | 1.0 | 6.0 | 0.00 | 0.01 | 0.01 | 84 | 1012.6 |
| 20260903191101 | 77 | 0 | 2.0 | 6.0 | 0.00 | 0.01 | 0.01 | 81 | 1012.5 |
| 20260903190602 | 77 | 137 | 1.0 | 7.0 | 0.00 | 0.01 | 0.01 | 79 | 1012.6 |
| 20260903190104 | 77 | 176 | 0.0 | 7.0 | 0.00 | 0.01 | 0.01 | 81 | 1012.6 |
| 20260903185601 | 77 | 148 | 2.0 | 7.0 | 0.00 | 0.01 | 0.01 | 82 | 1012.7 |
| 20260903185101 | 76 | 248 | 2.0 | 7.0 | 0.00 | 0.01 | 0.01 | 89 | 1012.6 |
| 20260903184602 | 75 | 0 | 0.0 | 3.0 | 0.00 | 0.01 | 0.01 | 89 | 1012.7 |
| 20260903184101 | 74 | 0 | 0.0 | 3.0 | 0.00 | 0.01 | 0.01 | 87 | 1012.8 |
| 20260903183604 | 74 | 0 | 1.0 | 3.0 | 0.00 | 0.01 | 0.01 | 87 | 1012.8 |
| 20260903183102 | 74 | 186 | 0.0 | 3.0 | 0.00 | 0.01 | 0.01 | 87 | 1012.7 |
| 20260903182601 | 75 | 231 | 0.0 | 5.0 | 0.00 | 0.01 | 0.01 | 86 | 1012.8 |
| 20260903182101 | 75 | 0 | 0.0 | 5.0 | 0.00 | 0.01 | 0.01 | 86 | 1012.9 |
| 20260903181602 | 74 | 169 | 1.0 | 5.0 | 0.00 | 0.01 | 0.01 | 86 | 1013.0 |
| 20260903181101 | 74 | 146 | 0.0 | 4.0 | 0.00 | 0.01 | 0.01 | 88 | 1013.1 |
| 20260903180602 | 74 | 135 | 1.0 | 4.0 | 0.00 | 0.01 | 0.01 | 87 | 1013.2 |
| 20260903180106 | 74 | 173 | 1.0 | 4.0 | 0.00 | 0.01 | 0.01 | 87 | 1013.2 |
| 20260903175557 | 74 | 170 | 2.0 | 6.0 | 0.00 | 0.01 | 0.01 | 86 | 1013.3 |
| 20260903175057 | 74 | 256 | 2.0 | 6.0 | 0.00 | 0.01 | 0.01 | 86 | 1013.2 |
| 20260903174604 | 74 | 229 | 1.0 | 6.0 | 0.00 | 0.01 | 0.01 | 87 | 1013.3 |
| 20260903174056 | 74 | 0 | 2.0 | 6.0 | 0.00 | 0.01 | 0.01 | 86 | 1013.3 |
| 20260903173557 | 74 | 0 | 1.0 | 6.0 | 0.00 | 0.01 | 0.01 | 86 | 1013.3 |
| 20260903173103 | 74 | 0 | 1.0 | 7.0 | 0.00 | 0.01 | 0.01 | 86 | 1013.4 |
| 20260903172559 | 74 | 229 | 2.0 | 7.0 | 0.00 | 0.01 | 0.01 | 85 | 1013.3 |
| 20260903172101 | 75 | 113 | 1.0 | 6.0 | 0.00 | 0.01 | 0.01 | 86 | 1013.3 |
| 20260903171615 | 74 | 222 | 0.0 | 6.0 | 0.00 | 0.01 | 0.01 | 87 | 1013.3 |
| 20260903171100 | 74 | 278 | 2.0 | 6.0 | 0.00 | 0.01 | 0.01 | 87 | 1013.5 |
| 20260903170600 | 74 | 173 | 0.0 | 4.0 | 0.00 | 0.01 | 0.01 | 87 | 1013.5 |
| 20260903170104 | 73 | 0 | 1.0 | 4.0 | 0.00 | 0.01 | 0.01 | 87 | 1013.5 |
| 20260903165600 | 73 | 0 | 0.0 | 3.0 | 0.00 | 0.01 | 0.01 | 88 | 1013.6 |
| 20260903165101 | 73 | 262 | 0.0 | 3.0 | 0.00 | 0.01 | 0.01 | 87 | 1013.6 |
| 20260903164640 | 73 | 0 | 0.0 | 3.0 | 0.00 | 0.01 | 0.01 | 87 | 1013.7 |
| 20260903164059 | 73 | 0 | 1.0 | 3.0 | 0.00 | 0.01 | 0.01 | 87 | 1013.7 |
| 20260903163558 | 73 | 0 | 0.0 | 2.0 | 0.00 | 0.01 | 0.01 | 86 | 1013.7 |
| 20260903163106 | 73 | 0 | 0.0 | 4.0 | 0.00 | 0.01 | 0.01 | 85 | 1013.8 |
| 20260903162602 | 73 | 0 | 0.0 | 4.0 | 0.00 | 0.01 | 0.01 | 85 | 1013.8 |
| 20260903162100 | 74 | 184 | 0.0 | 3.0 | 0.00 | 0.01 | 0.01 | 85 | 1013.7 |
| 20260903161603 | 74 | 0 | 1.0 | 3.0 | 0.00 | 0.01 | 0.01 | 85 | 1013.8 |
| 20260903161059 | 74 | 0 | 1.0 | 4.0 | 0.00 | 0.01 | 0.01 | 85 | 1013.8 |
| 20260903160558 | 73 | 0 | 0.0 | 6.0 | 0.00 | 0.01 | 0.01 | 85 | 1013.8 |
| 20260903160110 | 74 | 0 | 1.0 | 6.0 | 0.00 | 0.01 | 0.01 | 85 | 1013.8 |
| 20260903155602 | 74 | 165 | 2.0 | 7.0 | 0.00 | 0.01 | 0.01 | 86 | 1013.9 |
| 20260903155059 | 73 | 179 | 3.0 | 7.0 | 0.00 | 0.01 | 0.01 | 86 | 1013.9 |
| 20260903154603 | 73 | 137 | 1.0 | 6.0 | 0.00 | 0.01 | 0.01 | 88 | 1014.0 |
| 20260903154103 | 72 | 134 | 1.0 | 4.0 | 0.00 | 0.01 | 0.01 | 89 | 1013.8 |
| 20260903153558 | 72 | 181 | 0.0 | 4.0 | 0.00 | 0.01 | 0.01 | 91 | 1013.9 |
| 20260903153108 | 71 | 0 | 2.0 | 4.0 | 0.00 | 0.01 | 0.01 | 91 | 1014.0 |
| 20260903152558 | 71 | 159 | 0.0 | 3.0 | 0.00 | 0.01 | 0.01 | 92 | 1014.0 |
| 20260903152102 | 71 | 0 | 0.0 | 4.0 | 0.00 | 0.01 | 0.01 | 92 | 1014.1 |
| 20260903151602 | 70 | 294 | 1.0 | 4.0 | 0.00 | 0.01 | 0.01 | 92 | 1014.1 |
| 20260903151059 | 70 | 125 | 1.0 | 4.0 | 0.00 | 0.01 | 0.01 | 92 | 1014.2 |
| 20260903150559 | 70 | 0 | 0.0 | 4.0 | 0.00 | 0.01 | 0.01 | 93 | 1014.2 |
| 20260903150104 | 70 | 0 | 2.0 | 4.0 | 0.00 | 0.01 | 0.01 | 93 | 1014.2 |
| 20260903145600 | 69 | 0 | 0.0 | 3.0 | 0.00 | 0.01 | 0.01 | 93 | 1014.2 |
| 20260903145101 | 69 | 0 | 1.0 | 3.0 | 0.00 | 0.01 | 0.01 | 93 | 1014.1 |
| 20260903144611 | 68 | 49 | 0.0 | 3.0 | 0.00 | 0.01 | 0.01 | 93 | 1014.3 |
| 20260903144101 | 68 | 0 | 1.0 | 4.0 | 0.00 | 0.01 | 0.01 | 93 | 1014.4 |
| 20260903143559 | 68 | 50 | 2.0 | 4.0 | 0.00 | 0.01 | 0.01 | 94 | 1014.4 |
| 20260903143104 | 68 | 352 | 0.0 | 3.0 | 0.00 | 0.01 | 0.01 | 94 | 1014.3 |
| 20260903142600 | 67 | 0 | 0.0 | 3.0 | 0.00 | 0.01 | 0.01 | 94 | 1014.4 |
| 20260903142100 | 67 | 1 | 0.0 | 3.0 | 0.00 | 0.01 | 0.01 | 94 | 1014.3 |
| 20260903141608 | 67 | 25 | 1.0 | 3.0 | 0.00 | 0.01 | 0.01 | 94 | 1014.4 |
| 20260903141059 | 67 | 345 | 0.0 | 2.0 | 0.00 | 0.01 | 0.01 | 94 | 1014.3 |
| 20260903140600 | 66 | 0 | 0.0 | 1.0 | 0.00 | 0.01 | 0.01 | 94 | 1014.3 |
| 20260903140106 | 66 | 0 | 0.0 | 1.0 | 0.00 | 0.01 | 0.01 | 94 | 1014.5 |
| 20260903135600 | 66 | 0 | 0.0 | 1.0 | 0.00 | 0.01 | 0.01 | 94 | 1014.5 |
| 20260903135100 | 66 | 0 | 0.0 | 0.0 | 0.00 | 0.01 | 0.01 | 94 | 1014.5 |
| 20260903134618 | 65 | 0 | 0.0 | 3.0 | 0.00 | 0.01 | 0.01 | 94 | 1014.5 |
| 20260903134100 | 65 | 0 | 0.0 | 3.0 | 0.00 | 0.01 | 0.01 | 94 | 1014.5 |
| 20260903133600 | 65 | 48 | 1.0 | 3.0 | 0.00 | 0.01 | 0.01 | 94 | 1014.6 |
| 20260903133105 | 65 | 0 | 0.0 | 2.0 | 0.00 | 0.01 | 0.01 | 94 | 1014.6 |
| 20260903132559 | 65 | 52 | 0.0 | 1.0 | 0.00 | 0.01 | 0.01 | 94 | 1014.7 |
| 20260903132104 | 65 | 0 | 0.0 | 2.0 | 0.00 | 0.01 | 0.01 | 94 | 1014.6 |
| 20260903131603 | 65 | 4 | 0.0 | 2.0 | 0.00 | 0.01 | 0.01 | 94 | 1014.5 |
| 20260903131101 | 64 | 0 | 0.0 | 2.0 | 0.00 | 0.01 | 0.01 | 94 | 1014.6 |
| 20260903130605 | 64 | 0 | 0.0 | 0.0 | 0.00 | 0.01 | 0.01 | 94 | 1014.6 |
| 20260903130107 | 64 | 0 | 0.0 | 1.0 | 0.00 | 0.01 | 0.01 | 94 | 1014.6 |
| 20260903125600 | 64 | 0 | 0.0 | 1.0 | 0.00 | 0.01 | 0.01 | 94 | 1014.6 |
| 20260903125101 | 64 | 0 | 0.0 | 1.0 | 0.00 | 0.01 | 0.01 | 94 | 1014.5 |
| 20260903124622 | 64 | 0 | 0.0 | 1.0 | 0.00 | 0.01 | 0.01 | 94 | 1014.5 |
| 20260903124059 | 64 | 0 | 0.0 | 1.0 | 0.00 | 0.01 | 0.01 | 94 | 1014.6 |
| 20260903123559 | 64 | 0 | 0.0 | 1.0 | 0.00 | 0.01 | 0.01 | 94 | 1014.7 |
| 20260903123107 | 64 | 65 | 0.0 | 1.0 | 0.00 | 0.01 | 0.01 | 94 | 1014.6 |
| 20260903122600 | 64 | 0 | 0.0 | 1.0 | 0.00 | 0.01 | 0.01 | 94 | 1014.7 |
| 20260903122100 | 64 | 0 | 0.0 | 1.0 | 0.00 | 0.01 | 0.01 | 94 | 1014.8 |
| 20260903121611 | 64 | 0 | 0.0 | 1.0 | 0.00 | 0.01 | 0.01 | 94 | 1014.8 |
| 20260903121059 | 64 | 0 | 0.0 | 1.0 | 0.01 | 0.01 | 0.01 | 94 | 1014.8 |
| 20260903120600 | 63 | 0 | 0.0 | 1.0 | 0.01 | 0.01 | 0.01 | 94 | 1014.8 |
| 20260903120110 | 63 | 0 | 0.0 | 1.0 | 0.01 | 0.01 | 0.01 | 94 | 1014.7 |
| 20260903115559 | 63 | 0 | 0.0 | 0.0 | 0.01 | 0.01 | 0.01 | 94 | 1014.8 |
| 20260903115102 | 63 | 0 | 0.0 | 0.0 | 0.01 | 0.01 | 0.01 | 94 | 1014.7 |
| 20260903114604 | 63 | 0 | 0.0 | 1.0 | 0.01 | 0.01 | 0.01 | 94 | 1014.8 |
| 20260903114059 | 63 | 0 | 0.0 | 1.0 | 0.01 | 0.01 | 0.01 | 94 | 1014.9 |
| 20260903113559 | 63 | 0 | 0.0 | 1.0 | 0.01 | 0.01 | 0.01 | 94 | 1015.0 |
| 20260903113147 | 63 | 0 | 0.0 | 1.0 | 0.01 | 0.01 | 0.01 | 94 | 1014.9 |
| 20260903112600 | 63 | 0 | 0.0 | 1.0 | 0.01 | 0.01 | 0.01 | 94 | 1014.9 |
| 20260903112100 | 63 | 0 | 0.0 | 1.0 | 0.01 | 0.01 | 0.01 | 94 | 1015.0 |
| 20260903111605 | 63 | 0 | 0.0 | 1.0 | 0.01 | 0.01 | 0.01 | 94 | 1015.1 |
| 20260903111059 | 63 | 40 | 0.0 | 1.0 | 0.00 | 0.00 | 0.00 | 94 | 1014.9 |
| 20260903110559 | 63 | 0 | 0.0 | 0.0 | 0.00 | 0.00 | 0.00 | 94 | 1014.9 |
| 20260903110109 | 63 | 0 | 0.0 | 0.0 | 0.00 | 0.00 | 0.00 | 93 | 1015.0 |
| 20260903105602 | 63 | 0 | 0.0 | 0.0 | 0.00 | 0.00 | 0.00 | 93 | 1015.0 |
| 20260903105102 | 63 | 0 | 0.0 | 1.0 | 0.00 | 0.00 | 0.00 | 93 | 1014.9 |
| 20260903104619 | 63 | 0 | 0.0 | 1.0 | 0.00 | 0.00 | 0.00 | 93 | 1015.0 |
| 20260903104059 | 63 | 0 | 0.0 | 0.0 | 0.00 | 0.00 | 0.00 | 93 | 1015.0 |
| 20260903103602 | 63 | 0 | 0.0 | 1.0 | 0.00 | 0.00 | 0.00 | 93 | 1015.0 |
| 20260903103105 | 63 | 0 | 0.0 | 1.0 | 0.00 | 0.00 | 0.00 | 93 | 1015.0 |
| 20260903102600 | 63 | 0 | 0.0 | 1.0 | 0.00 | 0.00 | 0.00 | 93 | 1015.0 |
| 20260903102059 | 63 | 0 | 0.0 | 1.0 | 0.00 | 0.00 | 0.00 | 93 | 1014.8 |
| 20260903101620 | 63 | 0 | 0.0 | 1.0 | 0.00 | 0.00 | 0.00 | 93 | 1014.7 |
| 20260903101059 | 63 | 0 | 0.0 | 2.0 | 0.00 | 0.00 | 0.00 | 93 | 1014.6 |
| 20260903100559 | 63 | 0 | 0.0 | 2.0 | 0.00 | 0.00 | 0.00 | 93 | 1014.7 |
| 20260903100119 | 63 | 66 | 0.0 | 2.0 | 0.00 | 0.00 | 0.00 | 93 | 1014.7 |
| 20260903095557 | 63 | 53 | 0.0 | 0.0 | 0.00 | 0.00 | 0.00 | 93 | 1014.6 |
| 20260903095101 | 63 | 0 | 0.0 | 0.0 | 0.00 | 0.00 | 0.00 | 93 | 1014.7 |
| 20260903094605 | 63 | 0 | 0.0 | 1.0 | 0.00 | 0.00 | 0.00 | 93 | 1014.6 |
| 20260903094100 | 63 | 0 | 0.0 | 1.0 | 0.00 | 0.00 | 0.00 | 93 | 1014.8 |
| 20260903093600 | 63 | 259 | 0.0 | 1.0 | 0.00 | 0.00 | 0.00 | 93 | 1014.6 |
| 20260903093106 | 63 | 0 | 0.0 | 1.0 | 0.00 | 0.00 | 0.00 | 93 | 1014.8 |
| 20260903092559 | 63 | 75 | 0.0 | 1.0 | 0.00 | 0.00 | 0.00 | 93 | 1014.6 |
| 20260903092059 | 63 | 0 | 0.0 | 1.0 | 0.00 | 0.00 | 0.00 | 93 | 1014.8 |
| 20260903091602 | 63 | 0 | 0.0 | 1.0 | 0.00 | 0.00 | 0.00 | 93 | 1014.7 |
| 20260903091059 | 63 | 0 | 0.0 | 2.0 | 0.00 | 0.00 | 0.00 | 93 | 1014.8 |
| 20260903090559 | 63 | 0 | 0.0 | 2.0 | 0.00 | 0.00 | 0.00 | 93 | 1014.8 |
| 20260903090104 | 63 | 41 | 1.0 | 2.0 | 0.00 | 0.00 | 0.00 | 93 | 1014.6 |
| 20260903085559 | 63 | 0 | 0.0 | 2.0 | 0.00 | 0.00 | 0.00 | 93 | 1014.9 |
| 20260903085059 | 63 | 16 | 0.0 | 3.0 | 0.00 | 0.00 | 0.00 | 92 | 1014.9 |
| 20260903084610 | 63 | 0 | 0.0 | 3.0 | 0.00 | 0.00 | 0.00 | 92 | 1015.0 |
| 20260903084059 | 63 | 45 | 1.0 | 2.0 | 0.00 | 0.00 | 0.00 | 92 | 1015.0 |